[[{"header":{"parameterUnit":"m.s-1","parameterCategory":1,"la1":30.2991,"la2":30.254,"lo1":-89.0895,"lo2":-89.0444,"dy":0.0017,"dx":0.0017,"nx":28,"ny":28,"refTime":"2025-04-09T21:00:00:Z","depth":0,"parameterNumber":2,"parameterNumberName":"U-component_of_WINDS"},"data":[0,0,0,0,0,0,0,0,0,0,0,0,0,0,0,0,0,0,0,0,0,0,0,0,0,0,0,0,0,0,0,0,0,0,0,0,0,0,0,0,0,0,0,0,0,0,0,0,0,0,0,0,0,0,0,0,0,0,6.3272,6.3274,0,6.3454,6.3456,6.3458,6.3362,6.3357,6.3352,6.3348,6.354,6.3549,6.3559,0,0,0,0,0,0,0,0,0,0,0,0,0,6.2845,6.2853,6.3271,6.3274,6.3276,6.3454,6.3456,6.3459,6.3363,6.3357,6.3351,6.3345,6.3537,6.3548,6.356,0,0,0,0,0,0,0,0,0,0,0,0,0,6.3029,6.2856,6.3271,6.325,6.3249,6.3453,6.3456,6.3459,6.3364,6.3357,6.3349,6.3342,6.3533,6.3547,6.3561,6.3798,0,0,6.3606,6.3612,0,0,0,0,0,0,0,0,6.3019,6.3045,6.325,6.3251,6.3252,6.3377,6.3376,6.3573,6.3366,6.3321,6.3347,6.3339,6.3492,6.351,6.356,6.3807,6.3816,6.3607,6.3616,6.3622,6.3626,0,0,0,0,0,0,0,6.3006,6.3037,6.3344,6.3254,6.3254,6.3232,6.325,6.3413,6.3446,6.3324,6.3318,6.334,6.3491,6.3546,6.3564,6.3818,6.3607,6.3619,6.3628,6.3634,6.4269,6.4277,0,0,0,0,0,0,6.2994,6.3027,6.3338,6.3349,6.3115,6.3246,6.3266,6.3345,6.3444,6.3451,6.3346,6.3335,6.3525,6.3547,6.357,6.3854,6.3622,6.3636,6.3644,6.4261,6.4271,6.428,0,0,0,0,0,0,6.2985,6.3023,6.3331,6.3186,6.3224,6.3261,6.335,6.3352,6.3407,6.346,6.3466,6.3396,6.352,6.355,6.3742,6.386,6.3642,6.3655,6.4252,6.4264,6.4275,6.4424,0,0,0,0,0,0,6.2973,6.302,6.311,6.3189,6.3232,6.3498,6.3357,6.3361,6.3432,6.3419,6.3509,6.3517,6.3517,6.3721,6.3756,6.3876,6.3667,6.4241,6.4257,6.4272,6.4409,6.444,6.4467,0,0,0,0,0,6.2959,6.3146,6.3115,6.3153,6.3344,6.3505,6.353,6.3524,6.3442,6.3533,6.3567,6.3514,6.3841,6.3741,6.3781,6.3906,6.4234,6.4253,6.427,6.4396,6.4434,6.4466,0,0,0,0,0,0,6.3081,6.3156,6.3122,6.334,6.3417,6.3489,6.3603,6.3565,6.3668,6.3652,6.3642,6.3663,6.3863,6.3904,6.3791,6.4141,6.4025,6.4052,6.4107,6.4143,6.4172,6.4158,6.3679,0,0,0,0,0,6.3133,6.3256,6.3315,6.3502,6.3542,6.3566,6.3636,6.3625,6.3705,6.3738,6.3786,6.3867,6.3987,6.4067,6.4182,6.4414,6.4433,6.452,6.4549,6.4572,6.4596,6.4722,6.4762,6.434,6.434,6.434,0,0,6.3243,6.3299,6.3377,6.3528,6.3586,6.3715,6.3594,6.3736,6.3832,6.376,6.3943,6.3982,6.4072,6.4285,6.4381,6.4325,6.4716,6.4595,6.4614,6.4625,6.4745,6.4785,6.482,6.4353,6.435,6.4348,0,0,6.3508,6.3563,6.3724,6.3784,6.3873,6.3888,6.3927,6.4005,6.4026,6.421,6.4158,6.4273,6.4482,6.4548,6.4609,6.4898,6.4854,6.4936,6.5087,6.521,6.5243,6.5273,6.5376,6.5414,6.4959,6.496,6.496,0,6.3634,6.3825,6.3812,6.3958,6.4026,6.3964,6.4128,6.4188,6.4311,6.436,6.4294,6.4554,6.461,6.4838,6.4908,6.496,6.5004,6.4926,6.5239,6.5268,6.5296,6.5395,6.5434,6.4969,6.4968,6.4967,6.4966,0,6.3975,6.4108,6.4228,6.4345,6.4427,6.4581,6.4594,6.4678,6.466,6.4682,6.487,6.4935,6.5061,6.5114,6.5099,6.5341,6.5303,6.5239,6.5122,6.5345,6.5438,6.5476,6.4983,6.4979,6.4976,6.4974,0,0,6.4324,6.4431,6.4476,6.4528,6.4621,6.4725,6.4877,6.4998,6.5071,6.5157,6.5285,6.5462,6.5403,6.5472,6.5463,6.5571,6.5797,6.5494,6.5496,6.5548,6.6068,6.6116,6.616,6.5768,6.5775,6.5781,6.606,0,6.4596,6.4859,6.4852,6.5098,6.5221,6.5164,6.5296,6.5368,6.5393,6.5502,6.553,6.5655,6.5568,6.5609,6.5713,6.5748,6.5901,6.5727,6.5888,6.5894,6.5867,6.6208,6.626,6.6521,6.6097,6.6103,6.6107,0,6.4949,6.5045,6.5302,6.5376,6.5428,6.5547,6.5657,6.5762,6.5843,6.5853,6.593,6.5904,6.6059,6.5937,6.6152,6.6033,6.6099,6.6126,6.6135,6.6151,6.6014,6.6234,6.6604,6.6643,6.6164,6.616,6.6155,0,6.5178,6.5372,6.5551,6.5598,6.5689,6.5774,6.5816,6.5889,6.5962,6.6059,6.6107,6.6222,6.6285,6.6375,6.6381,6.6292,6.6598,6.6476,6.6611,6.6612,6.6679,6.6675,6.7066,6.6721,6.672,6.6719,6.6719,0,6.5483,6.5643,6.5655,6.5766,6.5943,6.5934,6.6111,6.6145,6.6211,6.6327,6.6285,6.6396,6.6397,6.651,6.6516,6.6693,6.6722,6.6736,6.6735,6.674,6.6738,6.6783,6.6765,6.673,6.6727,6.6725,6.6724,0,6.577,6.5784,6.5976,6.6045,6.6066,6.6195,6.6255,6.636,6.638,6.6529,6.6563,6.6595,6.6727,6.6741,6.6895,6.6899,6.7112,6.7092,6.7084,6.7081,6.7216,6.7203,6.765,6.7708,6.7324,6.7328,6.7331,0,6.5964,6.6086,6.6168,6.6242,6.6288,6.6409,6.6482,6.6478,6.6557,6.6658,6.6752,6.6878,6.6979,6.7192,6.723,6.7348,6.7331,6.7479,6.7348,6.7349,6.7334,6.7326,6.7339,6.7505,6.7509,6.7512,6.7515,0,6.6307,6.6308,6.6415,6.6525,6.6614,6.6701,6.6782,6.6846,6.6852,6.6943,6.7075,6.7154,6.7309,6.7436,6.7551,6.7596,6.7558,6.7556,6.7593,6.76,6.759,6.7597,6.7154,6.7546,6.7543,6.7541,6.7539,6.7538,6.6554,6.6659,6.6733,6.6854,6.6914,6.699,6.7093,6.7124,6.7234,6.7359,6.735,6.7497,6.7575,6.7725,6.7778,6.7894,6.7845,6.7899,6.7913,6.7927,6.794,6.7571,6.7915,6.7914,6.7913,6.7913,6.7912,0,6.6895,6.6939,6.705,6.7164,6.726,6.7212,6.73,6.7383,6.7512,6.7587,6.7686,6.7839,6.7961,6.8009,6.8129,6.8212,6.8198,6.8244,6.8238,6.8249,6.7978,6.7933,6.8253,6.8253,6.8253,6.8253,6.8253,6.8253,6.7084,6.7259,6.7268,6.7473,6.7516,6.7658,6.7712,6.7783,6.7842,6.8014,6.8114,6.8143,6.8208,6.8331,6.8442,6.8453,6.8499,6.8553,6.8557,6.8303,6.8268,6.8235,6.8193,6.8563,6.8564,6.8818,6.8821,6.8823]},{"header":{"parameterUnit":"m.s-1","parameterCategory":1,"la1":30.2991,"la2":30.254,"lo1":-89.0895,"lo2":-89.0444,"dy":0.0017,"dx":0.0017,"nx":28,"ny":28,"refTime":"2025-04-09T21:00:00:Z","depth":0,"parameterNumber":3,"parameterNumberName":"V-component_of_WINDS"},"data":[0,0,0,0,0,0,0,0,0,0,0,0,0,0,0,0,0,0,0,0,0,0,0,0,0,0,0,0,0,0,0,0,0,0,0,0,0,0,0,0,0,0,0,0,0,0,0,0,0,0,0,0,0,0,0,0,0,0,0.217,0.217,0,0.2154,0.2154,0.2154,0.2132,0.2132,0.2132,0.2131,0.2115,0.2114,0.2114,0,0,0,0,0,0,0,0,0,0,0,0,0,0.2181,0.2181,0.217,0.217,0.217,0.2154,0.2154,0.2154,0.2132,0.2132,0.2131,0.2131,0.2115,0.2114,0.2114,0,0,0,0,0,0,0,0,0,0,0,0,0,0.2172,0.2181,0.217,0.2157,0.2156,0.2154,0.2154,0.2154,0.2132,0.2132,0.2131,0.2131,0.2115,0.2114,0.2114,0.2124,0,0,0.2114,0.2114,0,0,0,0,0,0,0,0,0.2172,0.2171,0.2159,0.2158,0.2157,0.2145,0.2152,0.2144,0.2133,0.2141,0.2131,0.2131,0.2125,0.2124,0.2122,0.2123,0.2122,0.2114,0.2114,0.2114,0.2113,0,0,0,0,0,0,0,0.2173,0.2172,0.2164,0.2159,0.2157,0.2152,0.215,0.215,0.2136,0.2141,0.2139,0.2137,0.2124,0.2122,0.2121,0.2122,0.2114,0.2114,0.2113,0.2113,0.2129,0.2129,0,0,0,0,0,0,0.2176,0.2173,0.2164,0.2163,0.2163,0.2152,0.215,0.2149,0.2136,0.2134,0.2138,0.2136,0.2123,0.2122,0.2121,0.213,0.2114,0.2113,0.2113,0.2128,0.2129,0.2129,0,0,0,0,0,0,0.2176,0.2175,0.2165,0.2167,0.2166,0.2152,0.2152,0.2149,0.2147,0.2134,0.2132,0.2139,0.2122,0.2121,0.2123,0.2129,0.2113,0.2113,0.2128,0.2128,0.2129,0.215,0,0,0,0,0,0,0.2176,0.2175,0.2179,0.2168,0.2166,0.2168,0.2152,0.2149,0.2147,0.2145,0.2134,0.2132,0.2122,0.2123,0.2123,0.2129,0.2113,0.2127,0.2128,0.2129,0.2149,0.2151,0.2154,0,0,0,0,0,0.2177,0.2186,0.218,0.2179,0.217,0.2168,0.2167,0.2155,0.2148,0.2151,0.2142,0.2132,0.2129,0.2124,0.2123,0.2129,0.2126,0.2128,0.2129,0.2148,0.2151,0.2154,0,0,0,0,0,0,0.2199,0.2184,0.2177,0.2183,0.2177,0.2165,0.2169,0.2159,0.2156,0.2154,0.2139,0.2137,0.2141,0.2135,0.213,0.2137,0.2126,0.2127,0.2141,0.2144,0.2146,0.2147,0.2113,0,0,0,0,0,0.2204,0.2204,0.2191,0.2198,0.2195,0.2182,0.2181,0.2172,0.2166,0.2163,0.2155,0.2148,0.2146,0.2144,0.2141,0.2148,0.2145,0.2151,0.2154,0.2156,0.2157,0.2159,0.2162,0.2133,0.2133,0.2133,0,0,0.2216,0.2208,0.2208,0.2202,0.2196,0.2196,0.218,0.2181,0.218,0.2163,0.2164,0.2158,0.215,0.2154,0.2155,0.2149,0.2164,0.2158,0.2159,0.2159,0.216,0.2163,0.2166,0.2134,0.2134,0.2134,0,0,0.2236,0.223,0.2234,0.2229,0.2221,0.2212,0.2213,0.2202,0.2197,0.2198,0.2185,0.2183,0.218,0.2174,0.2171,0.2188,0.2178,0.2187,0.22,0.2202,0.2204,0.2206,0.2212,0.2214,0.2188,0.2188,0.2188,0,0.2251,0.225,0.2238,0.2239,0.2236,0.222,0.2224,0.2219,0.221,0.2208,0.2202,0.2195,0.2189,0.2191,0.2195,0.2193,0.2193,0.2188,0.2205,0.2207,0.2209,0.2213,0.2216,0.2189,0.2189,0.2189,0.2189,0,0.2269,0.2269,0.2273,0.2264,0.2262,0.2264,0.2251,0.225,0.2242,0.2234,0.2234,0.2225,0.222,0.222,0.2212,0.222,0.2217,0.2208,0.2196,0.2213,0.2217,0.2219,0.2191,0.219,0.219,0.219,0,0,0.2304,0.2287,0.2289,0.2285,0.2274,0.2273,0.2274,0.2269,0.2268,0.2262,0.2262,0.2258,0.225,0.2246,0.2237,0.2239,0.2251,0.2229,0.2229,0.2233,0.2259,0.2266,0.2268,0.2245,0.2245,0.2245,0.226,0,0.2322,0.2323,0.2311,0.2316,0.2315,0.2299,0.23,0.2293,0.2285,0.2283,0.2274,0.2271,0.2261,0.2258,0.2259,0.225,0.2256,0.2249,0.2244,0.2244,0.2247,0.2271,0.2278,0.2292,0.2262,0.2262,0.2262,0,0.2343,0.2338,0.2342,0.233,0.2329,0.2331,0.2324,0.2322,0.2313,0.2307,0.2303,0.2292,0.2291,0.2281,0.2279,0.2274,0.2271,0.2266,0.2267,0.2266,0.2254,0.227,0.2296,0.2298,0.2265,0.2264,0.2264,0,0.2367,0.2361,0.2363,0.236,0.2346,0.2347,0.2341,0.2332,0.2329,0.2323,0.2321,0.2315,0.2312,0.2307,0.2295,0.2288,0.2294,0.2283,0.2289,0.2289,0.2291,0.2291,0.2317,0.229,0.229,0.229,0.229,0,0.2388,0.2391,0.2373,0.2374,0.2377,0.2363,0.2366,0.2358,0.235,0.2349,0.2335,0.2334,0.2318,0.2315,0.2305,0.2305,0.2304,0.2298,0.2296,0.2299,0.23,0.2297,0.2296,0.229,0.229,0.229,0.229,0,0.2415,0.2404,0.2404,0.2391,0.2387,0.239,0.2378,0.2378,0.2369,0.2368,0.2366,0.2352,0.2348,0.2335,0.2327,0.232,0.2323,0.2318,0.2326,0.2324,0.2331,0.233,0.2356,0.2358,0.233,0.233,0.2331,0,0.243,0.2432,0.2418,0.2416,0.2411,0.2409,0.2405,0.2391,0.2388,0.2378,0.2379,0.2374,0.2368,0.2362,0.235,0.2344,0.2339,0.2348,0.2338,0.2341,0.2338,0.2338,0.2338,0.235,0.2351,0.2351,0.2351,0,0.2456,0.245,0.2446,0.244,0.2436,0.2431,0.2424,0.2423,0.2407,0.2405,0.24,0.2396,0.2388,0.2382,0.2374,0.2367,0.2356,0.2355,0.2356,0.2359,0.2364,0.2361,0.2332,0.2354,0.2354,0.2354,0.2354,0.2353,0.2477,0.2477,0.2468,0.2464,0.2457,0.2451,0.245,0.2441,0.2437,0.2429,0.2421,0.2417,0.2407,0.2395,0.2389,0.2385,0.2379,0.2381,0.2381,0.2382,0.2383,0.2364,0.2383,0.2383,0.2383,0.2383,0.2383,0,0.2502,0.2494,0.2491,0.2482,0.2478,0.2469,0.2461,0.2458,0.2455,0.2447,0.2442,0.2436,0.243,0.2418,0.2411,0.241,0.2405,0.2408,0.2408,0.2407,0.2389,0.2389,0.2413,0.2413,0.2413,0.2413,0.2413,0.2413,0.2514,0.2514,0.2507,0.2504,0.2496,0.2492,0.2488,0.2483,0.2476,0.247,0.2465,0.2457,0.2447,0.2439,0.2433,0.2429,0.2427,0.2432,0.2427,0.2411,0.2408,0.2405,0.2405,0.2432,0.2432,0.2445,0.2445,0.2445]}]]